Regional Weather Roundup
Issued by NWS

Home | Current Version | Previous Version | Graphics & Text | Print | Product List | Glossary On
Versions: 1 2 3 4 5 6 7 8 9 10 11 12 13 14 15 16 17 18 19 20 21 22 23 24 25 26 27
000
ASUS45 KTFX 181310
RWRMT
MONTANA REGIONAL WEATHER ROUNDUP
NATIONAL WEATHER SERVICE GREAT FALLS MT
700 AM MDT WED OCT 18 2017

NOTE: "FAIR" INDICATES FEW OR NO CLOUDS BELOW 12000 FEET WITH NO
SIGNIFICANT WEATHER AND/OR OBSTRUCTIONS TO VISIBILITY.

MTZ001>007-043-181400-
WEST OF THE DIVIDE

CITY           SKY/WX    TMP DP  RH WIND       PRES   REMARKS
KALISPELL      CLOUDY    29  26  89 CALM      30.04R
MISSOULA       PTCLDY    45  32  60 N6        30.05R
BUTTE          CLOUDY    40  23  50 NE5       30.06R
MULLAN PASS    MOCLDY    33  22  63 SW9G17    30.01F WCI  25
DEER LODGE       N/A     37  30  75 CALM      30.06R
EUREKA           N/A     30  25  80 MISG      30.02F
HAMILTON         N/A     46  34  61 S5        30.06R
LIBBY            N/A     30  25  80 CALM      30.02F
$$

MTZ008-052>055-181400-
SOUTHWEST MONTANA

CITY           SKY/WX    TMP DP  RH WIND       PRES   REMARKS
BOZEMAN        CLOUDY    38  24  57 NE8       30.02S
DILLON         CLOUDY    37  18  46 S9        30.06S WCI  30
W YELLOWSTONE  CLOUDY    34  19  55 N5        30.18R
ENNIS          CLOUDY    50  14  23 SE15      30.12S
THREE FORKS      N/A     42  23  47 CALM      30.01R
$$

MTZ009-010-012-014-046-048-049-054-181400-
EAST SLOPES AND CENTRAL MONTANA

CITY           SKY/WX    TMP DP  RH WIND       PRES   REMARKS
CUT BANK       CLOUDY    40  15  36 W6        29.93S
GREAT FALLS    CLOUDY    45  19  35 E8        29.96R
MALMSTROM AFB  CLOUDY    42  21  43 E5        29.97R
HELENA         MOCLDY    44  30  57 W9        30.01R
BOWMANS CRNR     N/A     43  27  53 SW14      29.95R
CHOTEAU          N/A     45  21  39 CALM      29.96S
FAIRFIELD        N/A     44  23  43 E8        29.93F
POWER          MOCLDY    39  22  50 SE6       29.95R
RAYNESFORD       N/A     44  25  47 CALM      29.97R
ULM            MOCLDY    52  31  44 W20       29.96R
$$

MTZ011-013-016-021-045-047-050-051-181400-
NORTH CENTRAL MONTANA

CITY           SKY/WX    TMP DP  RH WIND       PRES   REMARKS
HAVRE          CLEAR     27  25  92 SW6       29.96R WCI  20
LEWISTOWN      CLEAR     33  24  69 S7        29.99R WCI  27
N BAR RANCH      N/A     37  21  52 W6        30.02S
CHINOOK          N/A     30  27  86 W6        29.95S WCI  24
DENTON           N/A     34  25  71 SW5       29.96R
GEYSER           N/A     38  22  53 SE12      29.98R WCI  31
GRASS RANGE      N/A     36  24  62 NW5       29.96R
JUDITH GAP       N/A     37  22  56 NW8       29.98R WCI  30
WINIFRED       MOCLDY    37  24  58 S8        29.98R WCI  31
$$

MTZ017>020-022>027-061-062-181400-
NORTHEAST MONTANA

CITY           SKY/WX    TMP DP  RH WIND       PRES   REMARKS
GLASGOW        CLEAR     37  26  64 W8        29.94R WCI  31
JORDAN           N/A     34  28  79 NW8       29.97S WCI  27
SIDNEY         CLEAR     37  26  64 CALM      29.95R
WOLF POINT     CLEAR     43  26  51 SW10      29.96R
MALTA          CLEAR     32  27  80 W6        29.96R WCI  26
PLENTYWOOD       N/A     39  19  45 W10       29.87R
POPLAR           N/A     41  25  52 W8        29.95R
$$

MTZ028>42-056>058-181400-
SOUTHCENTRAL AND SOUTHEAST MONTANA

CITY           SKY/WX    TMP DP  RH WIND       PRES   REMARKS
BAKER          CLOUDY    39  31  72 W10       29.98R
BILLINGS       PTCLDY    42  29  59 E6        30.02R
LIVINGSTON     CLOUDY    52  19  27 W15       29.99R
MILES CITY     PTCLDY    40  29  64 W5        30.01R
BIG TIMBER     CLEAR     50  18  27 S8        30.01R
FORSYTH          N/A     39  28  65 CALM      30.02S
HARLOWTON        N/A     49  26  40 MISG      29.98R
LAUREL           N/A     45  28  53 NE12      30.02R
$$

REGIONAL REPORTS...DAKOTAS

CITY           SKY/WX    TMP DP  RH WIND       PRES   REMARKS
WILLISTON      CLEAR     41  22  46 W13       29.90R
MINOT          MOCLDY    47  27  45 W20G28    29.78R
DICKINSON      CLOUDY    42  27  55 NW13      29.90R
BEACH          MOCLDY    37  25  60 W9        29.98R WCI  31
CROSBY           N/A     39  19  45 W16       29.82S WCI  30
TIOGA            N/A     41  21  45 W17G25    29.85R
WATFORD CITY     N/A     43  25  49 W10G17    29.90R
BISMARCK       CLOUDY    54  32  43 NW18      29.86R
GRAND FORKS    CLOUDY    60  34  37 W15G24    29.63R
FARGO          CLOUDY    51  41  68 SW9       29.69R
BUFFALO SD       N/A     46  29  51 NW13      29.91R
RAPID CITY     CLEAR     55  25  31 N20       29.97R
$$

REGIONAL REPORTS...WYOMING/IDAHO/WASHINGTON

CITY           SKY/WX    TMP DP  RH WIND       PRES   REMARKS
GILLETTE       CLOUDY    43  25  49 N9        30.03R
SHERIDAN       CLOUDY    39  25  57 W3        30.01R
BUFFALO WY     CLEAR     51  15  23 N8        30.04R
CODY           CLOUDY    54  17  23 W8        30.06
IDAHO FALLS    CLOUDY    37  25  61 S5        30.15F
SALMON         CLEAR     27  24  89 SE3       30.10S
BOISE          CLEAR     43  30  60 SE8       30.12R
SPOKANE        CLOUDY    43  30  60 S7        30.01F
$$

REGIONAL REPORTS...ALBERTA

CITY           SKY/WX    TMP DP  RH WIND       PRES   REMARKS
EDMONTON       CLEAR     34  23  64 W13       29.76S WCI  25
CALGARY        PTCLDY    34  14  44 S5        29.84F
LETHBRIDGE     MOCLDY    43  18  36 W16G22    29.91S
MEDICINE HAT   MOCLDY    30  25  80 W8        29.89R WCI  23
$$

REGIONAL REPORTS...SASKATCHEWAN

CITY           SKY/WX    TMP DP  RH WIND       PRES   REMARKS
SWIFT CURRENT  CLEAR     34  23  64 W22G30    29.80R WCI  22
REGINA         PTCLDY    39  23  52 W28G38    29.69R WCI  28
SASKATOON      CLEAR     39  23  52 W30G41    29.59R WCI  27
$$




USA.gov is the U.S. government's official web portal to all federal, state and local government web resources and services.